User: anonymous   Login
Location: Peebles
(55.6412°N, 3.1714°W)
Time: 13:22:11
(UTC+00:00)
Language:

ARIANE 5 R/B - Orbit

View from above orbital plane
View from above orbital plane
View from above satellite
View from above satellite

Ground track
Ground track

The orbit data is extracted from the following two-line orbital elements,

1 36125U 09073B   21276.82137200 0.00000070  00000-0  98591-5 0    04
2 36125  98.1400 344.8809 0023276 307.8136  52.1862 14.77182288    07
Epoch (UTC): 03 October 2021 19:42:46
Eccentricity: 0.0023276
inclination: 98.1400°
perigee height: 622 km
apogee height: 654 km
right ascension of ascending node: 344.8809°
argument of perigee: 307.8136°
revolutions per day: 14.77182288
mean anomaly at epoch: 52.1862°
orbit number at epoch: 0

The dashed part of the orbit path shows where the satellite is in the earth's shadow,  

DLR